Terug naar catalogus

STARLINK-36332

ActiefCommunicatieVLEO
NORAD 67862·PAYLOAD·🇺🇸 United States

Gelanceerd Feb 20, 2026 vanaf Vandenberg Space Force Base

Loading…

Volgende Passages (komende 24 uur)

TLE

VersSource: CelesTrak SupGP

Epoch: Sep 14, 2026, 23:29 UTC

1 67862C 26034N   26257.97895833  .00006298  00000+0  18614-3 0  2572
2 67862  53.1590  43.5675 0001386  87.8001  38.9134 15.34379349    13

Volg STARLINK-36332 in realtime met AllMySat

Download on the App Store